Flag for Finland Weather past 2 weeks in Pori, Finland

Now
34 °F

More clouds than sun.


Feels Like: 25 °F
Forecast: 30 / 34 °F
Wind: 13 mph from South

Location: Pori Airport

Current Time: Jan 26, 2015 at 3:01:28 PM

Latest Report: Jan 26, 2015 at 2:20 PM


Visibility: N/A

Pressure: 29.83 "Hg

Humidity: 87%

Dew point: 30 °F

Location of PoriLocation

Historic Weather in Pori — Graph

°F

Pori temperature yesterday

Maximum temperature yesterday: 34 °F (at 12:20 AM)
Minimum temperature yesterday: 32 °F (at 6:20 AM)
Average temperature yesterday: 32 °F

Past Weeks' High & Low Weather Summary

 TemperatureHumidityPressure
High41 °F (Jan 16, 8:20 PM)100% (Jan 13, 2:50 AM)30.42 "Hg (Jan 13, 2:50 AM)
Low9 °F (Jan 12, 9:50 AM)70% (Jan 17, 2:50 AM)28.80 "Hg (Jan 13, 1:50 AM)
Average27 °F88%29.72 "Hg
* Reported Jan 11 1:20 PM — Jan 26 1:50 PM, Pori, Weather by CustomWeather, © 2014

Note: Actual official high and low records may vary slightly from our data, if they occured in-between our weather recording intervals... More about our weather records

Advertising

Pori weather history for previous 24 hours

 ConditionsComfort  
Time TempWeatherWind HumidityBarometerVisibility
1:50 PM
Jan 26
34 °FMostly cloudy.13 mph87%29.83 "HgN/A
1:20 PM34 °FMostly cloudy.12 mph87%29.83 "HgN/A
12:50 PM32 °FMostly cloudy.12 mph87%29.86 "HgN/A
12:20 PM32 °FMostly cloudy.12 mph87%29.86 "HgN/A
11:50 AM32 °FOvercast.12 mph87%29.89 "HgN/A
11:20 AM32 °FOvercast.12 mph87%29.89 "HgN/A
10:50 AM32 °FOvercast.9 mph87%29.89 "HgN/A
10:20 AM30 °FOvercast.10 mph93%29.92 "HgN/A
9:50 AM30 °FOvercast.10 mph93%29.92 "HgN/A
9:20 AM30 °FOvercast.10 mph93%29.92 "HgN/A
8:50 AM30 °FOvercast.10 mph93%29.95 "HgN/A
8:20 AM30 °FOvercast.9 mph86%29.95 "HgN/A
7:50 AM30 °FOvercast.10 mph86%29.95 "HgN/A
7:20 AM30 °FOvercast.10 mph86%29.95 "HgN/A
6:50 AM30 °FOvercast.8 mph86%29.98 "HgN/A
6:20 AM30 °FOvercast.12 mph86%29.98 "HgN/A
5:50 AM30 °FOvercast.12 mph86%29.98 "HgN/A
5:20 AM30 °FOvercast.9 mph93%30.01 "HgN/A
4:50 AM30 °FOvercast.8 mph93%30.01 "HgN/A
4:20 AM30 °FOvercast.6 mph93%30.01 "HgN/A
3:50 AM30 °FOvercast.6 mph93%30.04 "HgN/A
3:20 AM30 °FOvercast.6 mph93%30.04 "HgN/A
2:50 AM30 °FOvercast.6 mph93%30.04 "HgN/A
2:20 AM30 °FOvercast.6 mph93%30.04 "HgN/A
1:50 AM30 °FMostly cloudy.6 mph93%30.04 "HgN/A
1:20 AM32 °FOvercast.6 mph87%30.04 "HgN/A
12:50 AM32 °FPassing clouds.6 mph93%30.04 "HgN/A
12:20 AM32 °FOvercast.6 mph93%30.04 "HgN/A
11:20 PM
Jan 25
32 °FMostly cloudy.5 mph93%30.07 "HgN/A
10:50 PM32 °FPartly cloudy.5 mph93%30.07 "HgN/A
10:20 PM32 °FPartly cloudy.6 mph93%30.07 "HgN/A
9:50 PM32 °FPassing clouds.5 mph93%30.07 "HgN/A
9:20 PM32 °FPassing clouds.5 mph93%30.07 "HgN/A
8:50 PM32 °FPassing clouds.5 mph93%30.07 "HgN/A
8:20 PM32 °FMostly cloudy.5 mph100%30.07 "HgN/A
7:50 PM32 °FOvercast.5 mph100%30.07 "HgN/A
7:20 PM32 °FOvercast.5 mph100%30.07 "HgN/A
6:50 PM32 °FLow clouds.5 mph100%30.07 "Hg6 mi
6:20 PM32 °FLow clouds.3 mph100%30.07 "Hg4 mi
5:50 PM32 °FLow clouds.5 mph100%30.04 "Hg4 mi
5:20 PM32 °FLow clouds.3 mph100%30.04 "Hg5 mi
4:50 PM32 °FLight rain. Overcast.3 mph100%30.04 "Hg4 mi
4:20 PM32 °FLight rain. Overcast.3 mph100%30.04 "Hg4 mi
3:50 PM32 °FLight rain. Ice fog.5 mph100%30.04 "Hg2 mi
3:20 PM32 °FLight snow. Mostly cloudy.5 mph100%30.01 "Hg3 mi
Weather by CustomWeather, © 2014

See weather overviewHow to use our weather pages